Track FLOCK 4S 31 now! 10-day predictions FLOCK 4S 31 is classified as:
1 47475U 21006BQ 22141.14549221 .00023055 00000-0 12108-2 0 9993 2 47475 97.4398 200.3103 0007759 37.7083 322.4692 15.15687161 73115